Simultaneous Nadir Overpasses (SNOs) Predictions

Prediction of SNOs between GOES-16 and TERRA Satellite Orbit:

Table of predicted SNOs for the next 14.0 days since TLE Epoch: 1/7/2025
Index Date Time (GOES-16) GOES-16 Lat,Lon TERRA Lat,Lon Distance(km) Time Diff (sec)
1 01/07/2025 14:34:19 -0.00, -75.21 -0.06, -74.80 46.83 80
2 01/10/2025 02:35:36 0.01, -75.18 0.04, -75.16 4.17 80
3 01/12/2025 14:33:59 -0.00, -75.21 0.08, -75.45 27.74 80
4 01/14/2025 14:18:08 -0.00, -75.22 -0.89, -70.99 481.51 80
5 01/15/2025 02:37:54 0.00, -75.20 -0.10, -75.80 68.29 80
6 01/17/2025 02:16:40 -0.00, -75.22 0.80, -71.32 442.44 80
7 01/17/2025 14:36:17 0.00, -75.25 0.16, -76.10 95.37 80
8 01/19/2025 14:20:23 0.00, -75.29 -0.78, -71.62 416.75 80
9 01/20/2025 02:40:09 -0.00, -75.26 -0.23, -76.43 132.08 80
